Doha, Qatar

6:13 PM AST on August 26, 2016 (GMT +0300)
Doha

Weather History for 41170 - December, 2013

Change the Weather History Date:

Sunday, December 1, 2013

  Actual Average Record
Temperature  
Mean Temperature 75 °F -  
Max Temperature 83 °F 75 °F - ()
Min Temperature 67 °F 59 °F - ()
Cooling Degree Days 10    
Growing Degree Days 25 (Base 50)    
Moisture  
Dew Point 59 °F    
Average Humidity 59    
Maximum Humidity 88    
Minimum Humidity 23    
Precipitation  
Precipitation 0.00 in 0.02 in - ()
Sea Level Pressure  
Sea Level Pressure 30.14 in    
Wind  
Wind Speed 5 mph ()    
Max Wind Speed 12 mph    
Max Gust Speed -    
Visibility 4.3 miles    
Events      
T = Trace of Precipitation, MM = Missing Value Source: Averaged Metar Reports

Daily Weather History Graph

Daily Weather History Graph

Search for Another Location

Airport or City:

Trip Planner

Search our weather history database for the weather conditions in past years. The results will help you decide how hot, cold, wet, or windy it might be!

Date:

Astronomy

Dec. 01, 2013 Rise Set
Actual Time 6:02 AM AST 4:43 PM AST
Civil Twilight 5:37 AM AST 5:07 PM AST
Nautical Twilight 5:09 AM AST 5:36 PM AST
Astronomical Twilight 4:41 AM AST 6:04 PM AST
Moon 4:03 AM AST (12/1) 3:26 PM AST (12/1)
Length of Visible Light 11h 30m
Length of Day
10h 41m
Waning Crescent, 4% of the Moon is Illuminated
Dec 1
Waning Crescent
Dec 3
New
Dec 9
First Quarter
Dec 17
Full
Dec 25
Last Quarter

Hourly Weather History & Observations

Time (AST) Temp. Heat Index Dew Point Humidity Pressure Visibility Wind Dir Wind Speed Gust Speed Precip Events Conditions
12:00 AM 72 °F - 62 °F 64% 30.16 in 4 mi 2.3 mph - -   Haze
12:00 AM 71.6 °F - 62.6 °F 73% 30.15 in 4.3 mi Variable 2.3 mph - N/A   Unknown
12:30 AM 71.6 °F - 62.6 °F 73% 30.12 in 4.3 mi Variable 1.2 mph - N/A   Unknown
1:00 AM 69.8 °F - 62.6 °F 78% 30.12 in 4.3 mi Calm Calm - N/A   Unknown
1:30 AM 69.8 °F - 64.4 °F 83% 30.12 in 3.7 mi Variable 2.3 mph - N/A   Unknown
2:00 AM 69.8 °F - 64.4 °F 83% 30.12 in 3.7 mi SW 3.5 mph - N/A   Unknown
2:30 AM 69.8 °F - 64.4 °F 83% 30.12 in 3.7 mi WSW 3.5 mph - N/A   Unknown
3:00 AM 69 °F - 64 °F 80% 30.14 in 3 mi 2.3 mph - -   Haze
3:00 AM 69.8 °F - 64.4 °F 83% 30.12 in 3.1 mi Variable 2.3 mph - N/A   Haze
3:30 AM 69.8 °F - 64.4 °F 83% 30.12 in 3.1 mi Variable 1.2 mph - N/A   Haze
4:00 AM 68.0 °F - 64.4 °F 88% 30.12 in 3.1 mi Variable 2.3 mph - N/A   Haze
4:30 AM 68.0 °F - 62.6 °F 83% 30.12 in 3.1 mi Variable 2.3 mph - N/A   Haze
5:00 AM 68.0 °F - 62.6 °F 83% 30.15 in 3.1 mi Variable 2.3 mph - N/A   Haze
5:30 AM 69.8 °F - 59.0 °F 68% 30.15 in 3.7 mi WNW 3.5 mph - N/A   Unknown
6:00 AM 69 °F - 59 °F 63% 30.19 in 4 mi 2.3 mph - -   Haze
6:00 AM 69.8 °F - 59.0 °F 68% 30.18 in 3.7 mi Variable 2.3 mph - N/A   Unknown
6:30 AM 69.8 °F - 60.8 °F 73% 30.18 in 3.7 mi Variable 2.3 mph - N/A   Unknown
7:00 AM 69.8 °F - 62.6 °F 78% 30.18 in 3.7 mi WSW 3.5 mph - N/A   Unknown
7:30 AM 71.6 °F - 59.0 °F 64% 30.21 in 3.7 mi WNW 4.6 mph - N/A   Unknown
8:00 AM 73.4 °F - 60.8 °F 65% 30.21 in 3.7 mi West 3.5 mph - N/A   Unknown
8:30 AM 75.2 °F - 62.6 °F 65% 30.21 in 3.7 mi West 3.5 mph - N/A   Unknown
9:00 AM 75 °F - 62 °F 54% 30.22 in 4 mi West 5.8 mph - -   Haze
9:00 AM 75.2 °F - 60.8 °F 61% 30.21 in 3.7 mi West 5.8 mph - N/A   Unknown
9:30 AM 77.0 °F - 62.6 °F 61% 30.21 in 3.7 mi WNW 6.9 mph - N/A   Unknown
10:00 AM 77.0 °F - 59.0 °F 54% 30.18 in 5.0 mi WNW 8.1 mph - N/A   Unknown
11:00 AM 78.8 °F - 55.4 °F 44% 30.18 in - WNW 10.4 mph - N/A   Clear
11:30 AM 80.6 °F 80.5 °F 55.4 °F 42% 30.15 in - WNW 8.1 mph - N/A   Clear
12:00 PM 82 °F - 56 °F 31% 30.16 in 7 mi NW 8.1 mph - -  
12:00 PM 82.4 °F 82.0 °F 57.2 °F 42% 30.15 in - NW 8.1 mph - N/A   Clear
1:00 PM 82.4 °F 81.4 °F 53.6 °F 37% 30.12 in - NW 9.2 mph - N/A   Clear
1:30 PM 82.4 °F - 51.8 °F 35% 30.09 in - NNW 11.5 mph - N/A   Clear
2:00 PM 82.4 °F 81.4 °F 53.6 °F 37% 30.09 in - NW 9.2 mph - N/A   Clear
2:30 PM 82.4 °F - 50.0 °F 32% 30.09 in - NW 10.4 mph - N/A   Clear
3:00 PM 82 °F - 51 °F 23% 30.11 in 10 mi NW 9.2 mph - -  
3:00 PM 82.4 °F - 50.0 °F 32% 30.09 in - NW 9.2 mph - N/A   Clear
3:30 PM 82.4 °F - 51.8 °F 35% 30.09 in - WNW 9.2 mph - N/A   Clear
4:00 PM 80.6 °F 80.3 °F 53.6 °F 39% 30.09 in - WNW 9.2 mph - N/A   Clear
4:30 PM 80.6 °F 80.5 °F 55.4 °F 42% 30.09 in - NW 10.4 mph - N/A   Clear
5:00 PM 78.8 °F - 57.2 °F 47% 30.09 in - WNW 9.2 mph - N/A   Clear
5:30 PM 77.0 °F - 57.2 °F 50% 30.09 in - NW 9.2 mph - N/A   Clear
6:00 PM 77 °F - 57 °F 40% 30.13 in 7 mi NW 8.1 mph - -  
6:00 PM 77.0 °F - 57.2 °F 50% 30.12 in - NW 8.1 mph - N/A   Clear
6:30 PM 75.2 °F - 55.4 °F 50% 30.12 in - NW 9.2 mph - N/A   Clear
7:00 PM 75.2 °F - 55.4 °F 50% 30.12 in - NW 9.2 mph - N/A   Clear
7:30 PM 75.2 °F - 55.4 °F 50% 30.12 in - NW 8.1 mph - N/A   Clear
8:00 PM 75.2 °F - 53.6 °F 47% 30.15 in - NNW 8.1 mph - N/A   Clear
8:30 PM 73.4 °F - 59.0 °F 61% 30.15 in - NW 9.2 mph - N/A   Clear
9:00 PM 73 °F - 60 °F 56% 30.16 in 7 mi NW 6.9 mph - -  
9:00 PM 73.4 °F - 60.8 °F 65% 30.15 in - NW 6.9 mph - N/A   Clear
9:30 PM 73.4 °F - 60.8 °F 65% 30.12 in - NW 8.1 mph - N/A   Clear
10:00 PM 73.4 °F - 60.8 °F 65% 30.12 in - NW 8.1 mph - N/A   Clear
10:30 PM 71.6 °F - 62.6 °F 73% 30.12 in - NW 10.4 mph - N/A   Clear
11:00 PM 71.6 °F - 62.6 °F 73% 30.12 in - NW 10.4 mph - N/A   Clear
11:30 PM 71.6 °F - 62.6 °F 73% 30.12 in - NW 9.2 mph - N/A   Clear